SCP
0 0 0 0 0 0 0 0 0 1 1 1 1 1 1 1 2 2 3 3 4 4 4 3 4 5 7 9 10 12 13 12 11 8 6 5 4 3 4 4 4 4 5 5
0 0 0 0 0 0 0 0 0 1 1 1 1 1 1 1 2 2 3 3 4 4 4 3 4 6 8 10 12 12 12 10 8 7 6 4 3 3 4 4 4 5 5 5
0 0 0 0 0 0 1 1 1 1 1 1 1 1 1 1 2 2 2 3 4 4 4 4 5 8 10 12 13 12 10 7 6 5 5 4 3 3 3 4 4 4 4 4
0 0 0 0 0 0 1 1 1 2 2 2 2 2 2 1 2 2 2 3 4 4 5 5 5 8 10 11 11 9 7 6 5 5 5 4 3 3 4 4 4 4 3 3
0 0 0 0 0 0 0 1 1 1 2 2 2 2 2 2 2 2 2 3 4 5 5 6 5 6 7 8 7 6 6 5 5 5 5 5 4 4 5 6 6 6 5 4
0 0 0 0 0 0 0 1 1 1 2 2 2 2 2 2 2 2 3 4 5 6 6 6 5 5 5 5 5 5 5 5 6 6 6 6 6 6 6 8 9 9 7 5
1 1 1 0 0 0 1 1 1 1 1 1 2 2 2 2 2 2 3 4 5 6 6 5 5 5 4 4 4 4 4 4 5 6 6 6 7 7 8 9 10 9 6 4
1 1 1 0 0 0 1 1 1 1 1 1 1 2 2 2 1 2 3 4 4 5 5 5 4 4 4 4 4 3 3 3 5 6 6 6 7 8 8 9 9 7 4 3
1 1 1 0 0 0 1 1 1 2 1 1 1 1 2 2 1 2 2 3 4 4 4 5 5 5 5 5 4 3 2 3 4 6 6 6 7 7 7 7 6 5 3 2
1 1 0 0 0 0 1 1 1 1 1 1 1 1 1 2 2 2 2 3 3 4 4 4 5 5 5 5 3 3 3 3 4 6 7 7 6 6 5 5 4 4 3 3
1 0 0 0 0 0 0 1 1 1 1 2 2 2 2 2 2 2 3 3 3 3 3 4 4 5 5 4 3 3 3 3 3 5 6 7 6 5 4 3 3 3 3 3
0 0 0 0 0 0 0 1 1 1 1 2 4 4 3 2 2 3 3 3 3 3 2 3 3 4 3 3 3 2 2 2 3 4 5 6 6 4 3 2 1 1 1 2
0 0 0 0 0 0 0 1 1 1 1 2 4 4 3 2 2 2 3 2 2 2 2 2 2 2 2 2 2 2 2 2 3 3 4 5 5 4 3 2 1 1 0 0
0 0 0 0 0 0 0 1 1 1 2 2 2 2 2 2 2 2 2 2 2 2 1 2 2 2 2 2 1 2 2 2 3 3 3 4 5 5 4 3 2 2 1 0
0 0 0 0 0 0 0 1 1 1 1 2 2 1 1 1 1 1 1 1 1 1 1 1 1 2 2 2 2 2 2 2 3 3 3 3 4 4 4 4 3 3 2 1
0 0 0 0 0 0 0 0 0 1 1 1 2 1 1 1 1 1 1 1 1 1 2 2 2 2 2 2 2 2 2 2 3 3 2 2 2 4 4 4 3 3 2 2
0 0 0 0 0 0 0 0 0 0 1 1 1 1 1 1 0 0 0 0 0 1 1 2 2 2 2 2 2 2 2 2 2 3 2 2 2 3 4 4 4 3 2 2
0 0 0 0 0 0 0 0 0 0 0 1 1 1 1 0 0 0 0 0 0 1 1 2 2 2 3 3 3 4 4 4 4 4 4 4 4 5 5 5 5 5 4 3
0 0 0 0 0 0 0 0 0 0 0 0 1 1 0 0 0 0 0 0 0 0 1 1 1 2 3 3 4 5 6 5 5 5 5 5 5 5 5 5 5 5 4 3
0 0 0 0 0 0 0 0 0 0 0 0 0 0 0 0 0 0 0 0 0 0 0 1 1 2 2 3 3 4 5 4 4 4 4 3 3 3 3 3 3 3 3 2
0 0 0 0 0 0 0 0 0 0 0 0 0 0 0 0 0 0 0 0 0 0 0 0 1 1 1 2 2 4 4 4 3 3 2 2 1 1 1 1 1 1 1 1
0 0 0 0 0 0 0 0 0 0 0 0 0 0 0 0 0 0 0 0 0 0 0 0 0 0 0 1 1 2 3 3 3 3 2 2 2 1 1 1 1 1 1 1
0 0 0 0 0 0 0 0 0 0 0 0 0 0 0 0 0 0 0 0 0 0 0 0 0 0 0 0 1 1 2 2 2 2 2 2 1 1 1 1 1 1 1 1
0 0 0 0 0 0 0 0 0 0 0 0 0 0 0 0 0 0 0 0 0 0 0 0 0 0 0 0 1 1 1 1 1 2 1 1 1 1 1 1 1 1 1 1
0 0 0 0 0 1 0 0 0 0 0 0 0 0 0 0 0 0 0 0 0 0 0 0 0 0 0 0 1 1 1 1 1 1 1 1 1 1 1 1 1 1 1 1
0 0 0 0 1 1 1 0 0 0 0 0 0 0 0 0 0 0 0 1 0 0 0 0 0 0 0 0 0 1 1 1 1 1 1 1 1 1 1 1 1 1 1 1
0 0 0 0 0 1 0 0 0 0 0 0 0 1 1 0 0 0 0 1 0 0 0 0 1 1 1 0 0 0 1 0 0 0 0 0 0 0 1 1 1 1 1 1
Wind_Speed
9 7 7 10 11 12 13 13 12 10 8 5 2 3 2 2 2 2 2 2 2 3 3 3 3 3 2 3 3 3 3 3 3 3 4 4 4 4 4 4 4 4 4 4
9 8 9 10 11 12 13 12 12 11 8 2 1 2 2 2 3 3 3 2 2 2 3 3 3 3 3 2 2 2 2 2 2 2 3 3 4 4 4 4 4 4 4 4
9 8 9 11 10 11 11 10 11 11 7 3 3 3 3 3 3 3 3 3 2 2 2 2 2 2 2 2 2 2 2 2 2 2 3 3 3 3 3 3 4 4 4 4
7 8 12 3 1 5 7 7 7 6 3 3 2 2 1 2 3 3 2 2 2 2 2 2 2 2 3 2 2 2 1 1 2 2 2 3 3 3 3 3 3 3 4 4
6 9 7 4 3 4 6 6 4 4 3 2 2 3 3 1 1 1 1 1 2 2 2 3 3 3 3 3 2 2 2 2 2 2 2 3 3 3 3 3 3 3 3 4
7 9 7 2 3 2 5 6 2 2 2 2 4 6 2 2 0 0 1 1 1 2 2 2 3 3 3 3 2 2 2 2 2 3 3 3 3 3 2 3 3 3 3 3
9 8 3 2 1 3 7 1 3 0 1 2 4 3 2 0 1 1 1 1 2 2 2 2 2 3 3 2 2 2 2 2 2 2 3 3 3 3 3 3 2 2 2 2
7 8 4 2 1 3 3 4 2 1 1 1 1 0 1 1 1 1 2 2 2 2 2 2 2 3 3 2 2 2 2 2 2 2 3 3 3 3 3 3 3 3 3 3
3 2 3 1 2 3 4 3 3 2 1 1 2 1 1 1 1 2 2 2 2 2 2 2 2 3 3 2 2 2 2 2 2 2 2 2 3 3 3 3 3 2 2 2
3 2 2 2 3 4 4 4 3 2 1 2 1 1 1 1 1 1 1 2 2 2 2 2 2 2 2 2 2 2 2 2 2 3 2 2 2 2 2 2 2 2 2 2
4 4 3 2 3 4 3 2 2 1 1 1 1 1 1 1 1 1 1 2 2 2 3 3 3 2 2 2 2 2 3 3 3 3 2 2 2 1 2 1 1 2 2 2
4 2 3 3 3 3 2 2 2 1 1 0 0 0 1 1 1 1 2 2 2 3 3 3 3 2 2 2 3 3 3 3 3 2 2 2 2 2 2 1 3 1 1 3
4 3 3 3 3 2 2 1 1 1 1 1 1 1 1 1 1 1 1 1 2 2 2 2 2 2 2 2 3 3 3 3 2 2 2 2 2 2 2 3 4 3 3 2
3 4 4 3 2 2 1 1 0 0 0 1 1 0 0 0 0 0 0 0 1 2 2 2 2 2 2 3 3 3 4 3 3 3 2 2 2 2 2 2 2 2 3 3
3 3 3 2 2 1 1 1 1 1 1 0 1 1 1 1 0 0 0 0 1 1 2 2 2 3 3 3 4 4 4 3 3 3 3 2 2 2 2 2 2 1 1 2
3 3 2 2 2 2 1 1 1 1 0 0 0 0 0 0 0 1 1 1 1 2 2 3 3 3 3 3 4 4 3 3 4 4 3 3 2 2 2 2 2 1 1 1
3 3 3 3 3 2 2 1 1 1 1 1 1 0 0 1 1 1 2 1 1 2 2 3 3 3 4 4 4 4 3 3 5 4 3 2 3 3 2 2 1 1 1 1
4 4 3 3 2 2 2 1 1 1 1 1 1 1 1 1 2 2 2 2 2 2 2 2 2 2 2 3 3 4 3 3 3 3 2 2 2 2 2 2 1 2 1 2
3 3 3 2 2 1 1 1 1 1 1 1 1 1 1 1 2 2 2 1 2 2 2 3 3 2 1 1 3 3 2 2 2 2 2 2 3 3 2 2 2 2 1 1
2 2 2 2 2 1 1 1 1 1 1 1 1 0 1 1 2 2 2 1 2 3 2 3 2 1 1 1 2 1 1 1 1 1 2 2 2 2 2 1 1 1 1 1
2 3 3 3 2 1 1 1 1 1 0 0 1 0 0 0 1 1 1 1 2 3 2 1 1 1 1 2 2 1 0 0 1 1 2 2 2 2 2 2 2 1 1 1
3 3 3 2 2 1 1 1 1 1 1 1 1 0 0 1 1 1 1 2 2 2 2 1 1 3 3 3 3 2 1 1 1 1 1 2 1 1 1 2 2 2 1 2
2 3 3 2 2 2 2 2 2 1 1 0 0 0 1 1 1 1 1 1 1 1 2 2 3 3 2 3 3 2 1 1 1 1 1 1 1 1 1 2 2 2 2 2
2 2 3 2 2 2 2 2 2 1 1 1 1 0 1 2 1 1 1 1 1 1 2 2 2 1 3 3 2 1 1 1 2 2 2 2 2 1 1 2 2 2 2 2
2 2 2 2 2 2 2 2 2 2 1 0 0 0 1 1 2 2 1 1 1 2 2 1 3 3 4 2 1 1 1 1 2 3 2 2 2 2 2 2 3 3 3 3
2 2 2 1 1 0 1 1 1 0 0 0 0 1 1 1 1 1 1 1 2 2 2 1 1 2 2 2 1 2 2 1 1 2 2 2 3 3 3 3 4 3 3 3
2 2 2 2 1 1 0 0 0 0 1 1 1 1 1 1 1 1 1 1 1 2 2 1 1 1 2 2 2 2 2 2 2 2 2 2 2 2 2 3 3 3 3 3
Wind_Direction
260 272 249 238 233 227 234 249 259 263 261 243 231 252 241 207 187 172 174 164 151 146 142 146 146 147 141 147 151 160 167 171 178 182 185 188 195 201 201 205 206 211 222 224
244 243 243 244 241 239 239 245 253 260 261 254 212 236 231 210 204 205 205 196 178 166 160 154 151 152 149 146 153 165 168 176 175 189 195 193 199 204 206 211 214 214 222 224
243 238 242 236 237 238 238 242 249 251 254 199 207 225 225 213 220 225 223 212 201 186 179 175 170 162 163 159 160 176 180 188 196 204 210 204 207 209 214 218 218 223 226 226
248 238 237 222 244 255 248 243 250 258 251 216 224 241 238 228 234 228 221 214 212 197 186 185 179 165 156 151 160 178 184 198 211 212 222 209 206 209 217 219 222 230 233 233
241 239 239 207 211 238 244 243 243 241 226 211 203 227 202 189 233 236 245 238 233 210 193 184 182 171 160 159 173 193 204 215 217 210 223 213 217 218 222 218 220 228 229 228
239 244 242 166 85 318 254 228 165 207 209 214 221 242 182 116 229 258 234 220 223 204 186 179 181 178 172 171 184 211 226 222 218 212 222 221 218 227 228 225 226 231 233 238
240 243 243 52 14 229 234 50 70 72 223 232 247 298 49 149 232 218 202 198 202 196 191 185 187 189 188 193 212 231 236 232 215 213 226 226 216 222 226 228 223 227 230 240
236 240 232 65 202 258 350 1 342 304 276 274 311 83 169 207 215 210 203 199 205 199 190 184 189 202 207 223 234 231 225 223 223 226 234 213 207 215 218 223 217 215 215 233
257 282 38 11 333 344 334 314 309 282 269 250 232 210 211 213 206 206 202 204 211 202 187 191 204 216 221 230 234 229 227 222 226 238 235 214 215 215 211 215 228 232 224 224
244 250 292 322 311 307 310 311 312 298 269 228 215 201 207 224 206 202 208 218 213 200 196 208 221 231 233 225 227 224 223 226 233 231 214 195 225 223 226 221 226 238 247 243
245 264 274 285 314 313 317 327 322 312 275 262 215 213 218 234 245 249 235 229 221 212 208 208 213 228 231 220 217 220 222 224 234 227 205 199 212 232 232 217 271 264 269 261
262 279 281 304 327 324 307 321 321 304 308 283 230 237 232 244 263 252 233 223 219 218 209 202 201 211 219 215 214 218 225 225 224 221 203 212 201 185 134 169 145 168 297 292
273 291 298 302 307 294 268 288 312 295 275 280 298 272 263 259 259 260 241 212 207 204 202 207 211 214 215 217 223 230 237 239 237 230 214 217 221 221 198 174 166 182 208 226
247 256 267 267 278 271 258 272 331 330 320 306 342 320 322 320 158 202 298 232 208 201 203 209 218 227 228 222 229 238 240 226 231 234 233 225 224 228 226 218 200 193 185 189
246 247 251 256 256 249 210 175 146 128 143 121 73 76 81 85 102 24 31 337 271 230 234 236 233 237 237 225 227 235 242 236 231 234 228 223 228 230 227 219 221 209 174 156
244 240 244 234 219 224 209 182 171 153 141 161 125 104 7 7 345 341 330 291 270 254 250 258 256 244 235 233 228 229 225 210 239 238 224 220 227 235 233 227 218 200 206 176
228 225 220 221 218 220 207 195 201 206 216 249 246 237 265 287 299 313 317 315 300 286 268 259 264 254 236 237 241 240 234 196 203 232 228 225 234 236 237 237 225 218 218 99
227 227 224 226 218 211 207 208 220 232 237 253 241 230 282 306 311 322 328 338 341 338 323 310 313 290 260 245 246 253 243 236 223 229 230 216 235 243 244 242 240 240 238 148
206 207 210 204 203 201 198 196 213 249 259 268 267 262 297 324 326 322 332 345 333 332 353 359 354 306 293 304 276 237 241 243 240 227 223 197 222 237 241 242 247 254 263 277
178 172 160 161 159 162 162 165 179 233 277 300 276 289 313 328 340 346 357 351 349 351 358 2 338 333 336 7 292 256 252 250 240 236 238 241 240 245 246 253 261 267 277 287
155 150 143 140 129 114 118 148 164 173 160 222 234 251 288 316 329 333 309 334 11 345 348 5 322 341 357 352 266 275 289 320 260 243 245 246 250 258 260 261 269 275 278 279
134 134 129 126 124 120 122 131 147 164 185 223 243 219 171 231 264 286 328 332 356 358 306 319 8 28 8 316 284 294 296 293 275 259 245 240 239 254 268 267 260 257 265 278
126 122 119 121 124 123 117 115 117 127 159 203 149 214 262 291 288 280 301 340 338 6 308 349 34 41 336 286 292 304 309 303 291 288 286 285 277 264 262 261 270 276 270 268
139 125 114 117 123 125 121 119 121 133 196 193 134 212 270 270 279 283 321 56 15 327 305 42 68 348 267 265 277 290 306 307 302 301 310 307 305 302 292 287 285 280 276 274
143 142 144 151 160 148 140 144 145 155 176 173 128 261 271 294 306 326 341 351 9 282 281 154 170 226 256 279 293 306 308 320 314 307 298 291 288 287 283 281 283 286 285 282
136 156 141 140 124 154 154 157 164 169 257 341 41 358 343 349 344 333 310 311 316 302 300 308 246 229 258 274 288 304 303 291 264 272 294 298 296 296 294 287 286 289 289 289
134 130 135 133 129 140 129 115 55 33 360 348 19 1 347 353 4 356 321 305 301 299 311 313 305 292 293 298 311 313 306 309 312 309 305 301 302 297 297 300 305 305 300 304